Regional Weather Roundup
Issued by NWS

Home | Current Version | Previous Version | Text Only | Print | Product List | Glossary Off
Versions: 1 2 3 4 5 6 7 8 9 10 11 12 13 14 15 16 17 18 19 20 21 22 23 24 25 26 27 28 29 30 31 32 33 34 35 36 37 38 39 40 41 42 43 44 45 46 47 48 49 50

000
ASUS43 KIND 270109
RWRIN

WEATHER ROUNDUP FOR INDIANA
NATIONAL WEATHER SERVICE INDIANAPOLIS IN
900 PM EDT SAT MAY 26 2018

NOTE: "FAIR" INDICATES FEW OR NO CLOUDS BELOW 12,000 FEET WITH NO
SIGNIFICANT WEATHER AND/OR OBSTRUCTIONS TO VISIBILITY.

* - STATION DOES NOT REPORT WEATHER SUCH AS PRECIPITATION OR FOG.

+ - STATION NOT QUALITY CONTROLLED BY THE NATIONAL WEATHER SERVICE.
    USE DATA WITH CAUTION...ESPECIALLY DEWPOINT AND RELATIVE
    HUMIDITY OBSERVATIONS.

INZ001>003-010>013-019-020-270200-
NORTHWEST INDIANA

CITY           SKY/WX    TMP DP  RH WIND       PRES   REMARKS
GARY /AIRPORT/ PTCLDY    82  57  42 NE5       29.77R
KNOX *+        FAIR      82  61  47 N3        29.77R
LA PORTE +     FAIR      81  62  52 CALM      29.79R
MICHIGAN CITY+ FAIR      77  59  53 CALM      29.78R
MONTICELLO +   FAIR      82  64  55 CALM      29.76R
RENSSELAER +   FAIR      84  43  23 N5        29.77R
VALPARAISO     FAIR      84  63  49 CALM      29.78R

$$

LMZ046-743>745-270200-
SOUTHERN LAKE MICHIGAN

STATION/POSITION TIME  TEMP    WIND        PRES    WAVE
                       AIR SEA DIR/SP/G            HT
                 (UTC) (F)     (DEG/KT/KT) (MB)    (FT)
BURNS HARBOR     0040   74      80/  8/  9 1008.5R
MICHIGAN CITY    0040   78      40/  9/  9   N/A
5NW MICH CITY    0100   72 68   80/  4/  4   N/A     0

$$

INZ004-005-014>016-021>024-270200-
NORTH CENTRAL INDIANA

CITY           SKY/WX    TMP DP  RH WIND       PRES   REMARKS
GOSHEN         FAIR      80  58  46 NW5       29.79R
LOGANSPORT +   FAIR      75  70  83 CALM      29.79R
PERU/GRISSOM   FAIR      77  69  77 CALM      29.79R
ROCHESTER +    FAIR      82  63  51 CALM      29.79R
SOUTH BEND     FAIR      79  60  52 N3        29.79R
WARSAW +       FAIR      79  57  47 N3        29.79R

$$

INZ006>009-017-018-025>027-270200-
NORTHEAST INDIANA

CITY           SKY/WX    TMP DP  RH WIND       PRES   REMARKS
ANGOLA *+      FAIR      77  68  73 CALM      29.78R
AUBURN +       FAIR      73  68  83 CALM      29.80R
FORT WAYNE     FAIR      80  66  62 CALM      29.79R
HUNTINGTON +   MOCLDY    76  68  74 CALM      29.79R
KENDALLVILLE + FAIR      76  63  63 CALM      29.79R

$$

INZ028-029-035-036-043>045-051>053-270200-
WEST CENTRAL INDIANA

CITY           SKY/WX    TMP DP  RH WIND       PRES   REMARKS
CRAWFORDSVL +  FAIR      78  65  66 S5        29.79R
GREENCASTLE +  FAIR      77  63  61 CALM      29.81R
LAFAYETTE      FAIR      77  68  73 CALM      29.77R
TERRE HAUTE    FAIR      83  65  54 SW5       29.78R

$$

INZ030>032-037>040-046>048-054>057-064-065-270200-
CENTRAL INDIANA

CITY           SKY/WX    TMP DP  RH WIND       PRES   REMARKS
ANDERSON       FAIR      78  64  60 CALM      29.81R
FISHERS *+     FAIR     N/A N/A N/A SW3       29.81
FRANKFORT +    FAIR      83  65  54 W3        29.81R
GREENWOOD *+   CLOUDY    77  65  66 N16       29.83R
INDIANAPOLIS   LGT RAIN  76  66  71 NE5       29.80R
-EAGLE CREEK   MOCLDY    75  66  73 SE3       29.80R
KOKOMO +       FAIR      82  65  56 CALM      29.80R
MARION +       MOCLDY    80  64  58 CALM      29.80R HAZE
MT COMFORT *+  FAIR      73  70  88 CALM      29.82S
SHELBYVILLE    FAIR      82  65  56 W10       29.80R
ZIONSVILLE +   MOCLDY    76  64  66 S8        29.82R

$$

INZ033-034-041-042-049-050-058-059-270200-
EAST CENTRAL INDIANA

CITY           SKY/WX    TMP DP  RH WIND       PRES   REMARKS
MUNCIE         MOCLDY    82  63  52 CALM      29.80R
RICHMOND +     FAIR      73  68  83 CALM      29.83R

$$

INZ060-061-067>069-081>083-085>088-270200-
SOUTHWEST INDIANA

CITY           SKY/WX    TMP DP  RH WIND       PRES   REMARKS
EVANSVILLE     FAIR      80  69  69 SW7       29.81R
HUNTINGBURG +  FAIR      81  70  69 S6        29.82R
WASHINGTON +   FAIR      77  71  82 CALM      29.79R

$$

INZ062-063-066-070>080-084-089>092-270200-
SOUTH CENTRAL AND SOUTHEAST INDIANA

CITY           SKY/WX    TMP DP  RH WIND       PRES   REMARKS
BATESVILLE +   CLEAR     75  70  83 CALM      29.82R
BEDFORD +      FAIR      79  66  65 S3        29.81
BLOOMINGTON    FAIR      78  70  76 CALM      29.81R
FRENCH LICK *+ MOCLDY    79  59  50 CALM      29.83R
MADISON *+     FAIR      75  70  83 CALM      29.85R
NORTH VERNON + FAIR      77  66  69 CALM      29.82R
SEYMOUR +      FAIR      81  66  61 SW6       29.81R

$$




USA.gov is the U.S. government's official web portal to all federal, state and local government web resources and services.